Home > Weather > Iasi > Past weeks

Flag for Romania Past Weather in Iasi, Romania — Yesterday and Last 2 Weeks

Now
75 °F

Clear.


Feels Like: 77 °F
Forecast: 71 / 85 °F
Wind: 2 mph from Southeast

Location: Iasi Airport

Current Time: Jun 25, 2016 at 1:21:45 AM

Latest Report: Jun 25, 2016 at 1:00 AM


Visibility: 10 mi

Pressure: 30.12 "Hg

Humidity: 69%

Dew Point: 64 °F

Location of IasiLocation

Past Weather in Iasi — Graph

°F

Iasi Temperature Yesterday

Maximum temperature yesterday: 86 °F (at 3:00 PM)
Minimum temperature yesterday: 68 °F (at 6:00 AM)
Average temperature yesterday: 79 °F

High & Low Weather Summary for the Past Weeks

 TemperatureHumidityPressure
High91 °F (Jun 21, 4:00 PM)100% (Jun 12, 4:00 AM)30.24 "Hg (Jun 12, 4:00 AM)
Low52 °F (Jun 10, 5:30 AM)31% (Jun 18, 3:00 PM)29.45 "Hg (Jun 14, 6:30 PM)
Average73 °F70%29.93 "Hg
* Reported Jun 10 12:00 AM — Jun 25 12:00 AM, Iasi, Weather by CustomWeather, © 2016

Note: Actual official high and low records may vary slightly from our data, if they occured in-between our weather recording intervals... More about our weather records

Advertising

Iasi Weather History for the Previous 24 Hours

Scroll right to see more
 ConditionsComfort  
Time TempWeatherWind HumidityBarometerVisibility
12:00 AM
Sat, Jun 25
75 °FClear.8 mph65%30.12 "Hg10 mi
11:00 PM
Fri, Jun 24
77 °FWarm.6 mph65%30.12 "HgN/A
10:00 PM77 °FSunny.3 mph65%30.12 "Hg10 mi
9:00 PM81 °FSunny.3 mph54%30.12 "Hg10 mi
8:30 PM81 °FPassing clouds.5 mph54%30.12 "HgN/A
8:00 PM82 °FSunny.3 mph58%30.12 "Hg10 mi
7:30 PM82 °FPassing clouds.5 mph55%30.09 "HgN/A
7:00 PM82 °FSunny.7 mph58%30.09 "Hg10 mi
6:30 PM82 °FSunny.9 mph55%30.12 "Hg10 mi
6:00 PM82 °FSunny.10 mph55%30.12 "Hg10 mi
5:30 PM84 °FSunny.12 mph51%30.12 "Hg10 mi
5:00 PM82 °FSunny.12 mph58%30.12 "Hg10 mi
4:30 PM82 °FSunny.12 mph55%30.12 "Hg10 mi
4:00 PM84 °FPassing clouds.13 mph55%30.12 "HgN/A
3:30 PM84 °FScattered clouds.12 mph55%30.12 "HgN/A
3:00 PM86 °FPassing clouds.8 mph55%30.12 "HgN/A
2:30 PM84 °FPassing clouds.10 mph58%30.12 "HgN/A
2:00 PM84 °FPassing clouds.6 mph55%30.15 "HgN/A
1:30 PM84 °FPassing clouds.3 mph55%30.15 "HgN/A
1:00 PM82 °FPassing clouds.5 mph62%30.15 "HgN/A
12:30 PM82 °FPassing clouds.5 mph62%30.18 "HgN/A
12:00 PM81 °FPassing clouds.2 mph58%30.18 "HgN/A
11:30 AM79 °FPartly sunny.5 mph61%30.18 "HgN/A
11:00 AM79 °FScattered clouds.5 mph58%30.18 "HgN/A
10:30 AM77 °FPassing clouds.6 mph65%30.18 "HgN/A
10:00 AM77 °FSunny.10 mph61%30.18 "Hg10 mi
9:30 AM77 °FSunny.9 mph65%30.18 "Hg10 mi
9:00 AM75 °FSunny.8 mph65%30.18 "Hg10 mi
8:30 AM75 °FPassing clouds.3 mph65%30.18 "HgN/A
8:00 AM73 °FPassing clouds.2 mph69%30.18 "HgN/A
7:30 AM72 °FScattered clouds.2 mph73%30.18 "HgN/A
7:00 AM70 °FPartly sunny.5 mph78%30.21 "HgN/A
6:30 AM70 °FSunny.3 mph78%30.21 "Hg10 mi
6:00 AM68 °FClear.6 mph78%30.21 "Hg10 mi
5:30 AM70 °FPassing clouds.3 mph73%30.18 "HgN/A
4:00 AM70 °FClear.6 mph73%30.21 "Hg10 mi
3:00 AM73 °FClear.10 mph69%30.21 "Hg10 mi
2:00 AM77 °FPassing clouds.9 mph74%30.21 "HgN/A
1:00 AM77 °FClear.8 mph74%30.18 "Hg10 mi
Weather by CustomWeather, © 2016

See weather overviewHow to use our weather pages